Find Orbcomm FM105

NORAD ID: 41181 Int'l Des: 2015-081 Owner: ORBC Country: US Constellation: orbcomm operational
LEOCIRCULAR

实时位置

正在加载3D地球...

关于 Orbcomm FM105

正在加载描述...

即将过境

Passes for default location (London). Set your location on the main map for personalized predictions.

高度历史

Loading altitude history...

两行轨道根数

1 41181U 15081C 26139.24368451 .00000024 00000-0 51050-4 0 9995
2 41181 47.0009 86.1899 0001852 359.7547 0.3332 14.45540756549363
Epoch: May 19, 2026 • Age: 19 hours

当前状态

高度 744.8 km
速度 7.49 km/s
星下点 46.89°N, 65.28°W
发射日期 Dec 22, 2015
运行时间 10.4 years
类型 other

技术详情

分类 Payload
质量 172.00 kg
干质量 158.00 kg
总质量 172.00 kg
长度 1.00 m
直径 0.50 m
跨度 13.00 m
形状 Box+pan+ant
制造商 SNVL
平台类型 SN-100A
阶段状态 In Orbit
所有者/国家 ORBC/US

Most Searched